• In Portugal
  • List of Countries
  • For 7 days
  • Water Temperature
  • Satellite Maps
  • Weather Map
  • Weather Widgets
  • user-avatar
    Login

    Hourly Weather Trinidad

    Today, 16 November, Friday

    Time Temperature Precipitation Wind Pressure Humidity
    00:00 +23°C° 0 mm 0 mps 744 mmHg 98%
    01:00 +23°C° 0 mm 0 mps 743 mmHg 98%
    02:00 +22°C° 0 mm 0 mps 743 mmHg 99%
    03:00 +22°C° 0 mm 0 mps 743 mmHg 99%
    04:00 +24°C° 0 mm 1 mps 743 mmHg 99%
    05:00 +24°C° 0 mm 1 mps 743 mmHg 99%
    06:00 +25°C° 0.1 mm 1 mps 743 mmHg 96%
    07:00 +26°C° 0.1 mm 1 mps 744 mmHg 94%
    08:00 +27°C° 0.1 mm 1 mps 744 mmHg 92%
    09:00 +28°C° 0.1 mm 1 mps 744 mmHg 85%
    10:00 +30°C° 0.1 mm 1 mps 745 mmHg 77%
    11:00 +31°C° 0.1 mm 1 mps 745 mmHg 70%
    12:00 +32°C° 0.3 mm 1 mps 744 mmHg 67%
    13:00 +33°C° 0.3 mm 1 mps 743 mmHg 64%
    14:00 +34°C° 0.3 mm 2 mps 742 mmHg 61%
    15:00 +33°C° 0.4 mm 1 mps 742 mmHg 67%
    16:00 +32°C° 0.4 mm 1 mps 741 mmHg 73%
    17:00 +31°C° 0.4 mm 1 mps 741 mmHg 78%
    18:00 +30°C° 0.2 mm 1 mps 741 mmHg 83%
    19:00 +28°C° 0.2 mm 1 mps 741 mmHg 87%
    20:00 +27°C° 0.2 mm 1 mps 742 mmHg 91%
    21:00 +27°C° 0.2 mm 1 mps 742 mmHg 92%
    22:00 +27°C° 0.2 mm 1 mps 742 mmHg 93%
    23:00 +26°C° 0.2 mm 1 mps 742 mmHg 94%

    Tomorrow, 17 November, Saturday

    Time Temperature Precipitation Wind Pressure Humidity
    00:00 +26°C° 0.1 mm 1 mps 742 mmHg 94%
    01:00 +26°C° 0.1 mm 1 mps 742 mmHg 94%
    02:00 +26°C° 0.1 mm 1 mps 741 mmHg 94%
    03:00 +25°C° 0 mm 1 mps 742 mmHg 94%
    04:00 +23°C° 0 mm 0 mps 742 mmHg 95%
    05:00 +23°C° 0 mm 0 mps 742 mmHg 95%
    06:00 +24°C° 0 mm 0 mps 742 mmHg 88%
    07:00 +28°C° 0 mm 1 mps 743 mmHg 81%
    08:00 +30°C° 0 mm 1 mps 743 mmHg 75%
    09:00 +32°C° 0 mm 1 mps 743 mmHg 66%
    10:00 +35°C° 0 mm 2 mps 743 mmHg 57%
    11:00 +37°C° 0 mm 2 mps 743 mmHg 48%
    12:00 +38°C° 0 mm 2 mps 742 mmHg 46%
    13:00 +38°C° 0 mm 2 mps 741 mmHg 45%
    14:00 +38°C° 0 mm 3 mps 740 mmHg 44%
    15:00 +38°C° 0 mm 3 mps 740 mmHg 47%
    16:00 +37°C° 0 mm 2 mps 739 mmHg 50%
    17:00 +37°C° 0 mm 2 mps 739 mmHg 52%
    18:00 +35°C° 0 mm 2 mps 739 mmHg 59%
    19:00 +32°C° 0 mm 1 mps 740 mmHg 65%
    20:00 +30°C° 0 mm 1 mps 740 mmHg 71%
    21:00 +29°C° 0 mm 1 mps 741 mmHg 74%
    22:00 +29°C° 0 mm 1 mps 741 mmHg 77%
    23:00 +28°C° 0 mm 1 mps 741 mmHg 79%

    Day after tomorrow, 18 November, Sunday

    Time Temperature Precipitation Wind Pressure Humidity
    00:00 +28°C° 0 mm 1 mps 741 mmHg 80%
    01:00 +27°C° 0 mm 1 mps 740 mmHg 82%
    02:00 +27°C° 0 mm 1 mps 740 mmHg 83%
    03:00 +27°C° 0 mm 1 mps 740 mmHg 84%
    04:00 +27°C° 0 mm 1 mps 740 mmHg 84%
    05:00 +26°C° 0 mm 1 mps 740 mmHg 85%
    06:00 +28°C° 0 mm 1 mps 740 mmHg 80%
    07:00 +29°C° 0 mm 1 mps 741 mmHg 74%
    08:00 +31°C° 0 mm 2 mps 742 mmHg 69%
    09:00 +32°C° 0.1 mm 2 mps 742 mmHg 63%
    10:00 +35°C° 0.1 mm 2 mps 742 mmHg 58%
    11:00 +37°C° 0.1 mm 3 mps 742 mmHg 52%
    12:00 +37°C° 0.4 mm 3 mps 741 mmHg 50%
    13:00 +38°C° 0.4 mm 3 mps 741 mmHg 48%
    14:00 +38°C° 0.4 mm 3 mps 740 mmHg 46%
    15:00 +38°C° 0 mm 3 mps 740 mmHg 49%
    16:00 +37°C° 0 mm 2 mps 739 mmHg 52%
    17:00 +37°C° 0 mm 2 mps 739 mmHg 54%
    18:00 +35°C° 0 mm 2 mps 740 mmHg 61%
    19:00 +32°C° 0 mm 1 mps 740 mmHg 68%
    20:00 +30°C° 0 mm 1 mps 741 mmHg 75%
    21:00 +28°C° 1.4 mm 2 mps 742 mmHg 80%
    22:00 +27°C° 1.4 mm 3 mps 743 mmHg 85%
    23:00 +25°C° 1.4 mm 4 mps 743 mmHg 90%

    19 November, Monday

    Time Temperature Precipitation Wind Pressure Humidity
    00:00 +23°C° 0.6 mm 4 mps 743 mmHg 90%
    01:00 +24°C° 0.6 mm 3 mps 743 mmHg 91%
    02:00 +22°C° 0.6 mm 3 mps 743 mmHg 91%
    03:00 +23°C° 0.2 mm 2 mps 743 mmHg 90%
    04:00 +23°C° 0.2 mm 2 mps 743 mmHg 89%
    05:00 +23°C° 0.2 mm 2 mps 743 mmHg 87%
    06:00 +24°C° 0.4 mm 2 mps 744 mmHg 87%
    07:00 +24°C° 0.4 mm 2 mps 745 mmHg 86%
    08:00 +25°C° 0.4 mm 1 mps 745 mmHg 85%
    09:00 +25°C° 0.6 mm 2 mps 745 mmHg 84%
    10:00 +26°C° 0.6 mm 2 mps 745 mmHg 83%
    11:00 +26°C° 0.6 mm 2 mps 745 mmHg 81%
    12:00 +27°C° 0.4 mm 2 mps 745 mmHg 80%
    13:00 +27°C° 0.4 mm 2 mps 744 mmHg 78%
    14:00 +28°C° 0.4 mm 1 mps 743 mmHg 76%
    15:00 +28°C° 0 mm 1 mps 743 mmHg 73%
    16:00 +29°C° 0 mm 1 mps 742 mmHg 70%
    17:00 +29°C° 0 mm 1 mps 742 mmHg 67%
    18:00 +28°C° 0 mm 1 mps 742 mmHg 72%
    19:00 +27°C° 0 mm 1 mps 742 mmHg 76%
    20:00 +23°C° 0 mm 0 mps 743 mmHg 80%
    21:00 +23°C° 0 mm 0 mps 743 mmHg 81%
    22:00 +23°C° 0 mm 0 mps 744 mmHg 83%
    23:00 +22°C° 0 mm 0 mps 744 mmHg 84%

    20 November, Tuesday

    Time Temperature Precipitation Wind Pressure Humidity
    00:00 +22°C° 0 mm 0 mps 743 mmHg 85%
    01:00 +22°C° 0 mm 0 mps 743 mmHg 86%
    02:00 +24°C° 0 mm 1 mps 743 mmHg 87%
    03:00 +24°C° 0 mm 1 mps 743 mmHg 86%
    04:00 +24°C° 0 mm 1 mps 743 mmHg 85%
    05:00 +22°C° 0 mm 0 mps 743 mmHg 85%
    06:00 +25°C° 0 mm 1 mps 743 mmHg 79%
    07:00 +26°C° 0 mm 1 mps 744 mmHg 74%
    08:00 +28°C° 0 mm 1 mps 744 mmHg 68%
    09:00 +30°C° 0 mm 1 mps 744 mmHg 61%
    10:00 +32°C° 0 mm 1 mps 744 mmHg 54%
    11:00 +35°C° 0 mm 1 mps 744 mmHg 47%
    12:00 +35°C° 0 mm 1 mps 743 mmHg 46%
    13:00 +34°C° 0 mm 0 mps 742 mmHg 44%
    14:00 +35°C° 0 mm 0 mps 741 mmHg 42%
    15:00 +34°C° 0.1 mm 0 mps 741 mmHg 46%
    16:00 +33°C° 0.1 mm 0 mps 740 mmHg 50%
    17:00 +32°C° 0.1 mm 0 mps 740 mmHg 54%
    18:00 +32°C° 0.1 mm 1 mps 740 mmHg 62%
    19:00 +30°C° 0.1 mm 1 mps 741 mmHg 70%
    20:00 +28°C° 0.1 mm 1 mps 742 mmHg 77%
    21:00 +28°C° 0 mm 1 mps 742 mmHg 80%
    22:00 +27°C° 0 mm 1 mps 743 mmHg 83%
    23:00 +27°C° 0 mm 1 mps 743 mmHg 85%

    21 November, Wednesday

    Time Temperature Precipitation Wind Pressure Humidity
    00:00 +26°C° 0.3 mm 1 mps 742 mmHg 88%
    01:00 +26°C° 0.3 mm 1 mps 742 mmHg 90%
    02:00 +25°C° 0.3 mm 1 mps 742 mmHg 92%
    03:00 +23°C° 0.2 mm 0 mps 742 mmHg 93%
    04:00 +23°C° 0.2 mm 0 mps 742 mmHg 94%
    05:00 +23°C° 0.2 mm 0 mps 742 mmHg 94%
    06:00 +24°C° 0 mm 0 mps 743 mmHg 89%
    07:00 +25°C° 0 mm 0 mps 743 mmHg 85%
    08:00 +26°C° 0 mm 0 mps 744 mmHg 80%
    09:00 +29°C° 0.5 mm 0 mps 743 mmHg 71%
    10:00 +31°C° 0.5 mm 0 mps 743 mmHg 62%
    11:00 +36°C° 0.5 mm 1 mps 743 mmHg 53%
    12:00 +36°C° 0.1 mm 1 mps 742 mmHg 49%
    13:00 +37°C° 0.1 mm 1 mps 741 mmHg 46%
    14:00 +39°C° 0.1 mm 1 mps 740 mmHg 43%
    15:00 +37°C° 0 mm 2 mps 740 mmHg 48%
    16:00 +36°C° 0 mm 2 mps 739 mmHg 54%
    17:00 +34°C° 0 mm 2 mps 739 mmHg 60%
    18:00 +32°C° 0 mm 2 mps 739 mmHg 65%
    19:00 +30°C° 0 mm 2 mps 739 mmHg 71%
    20:00 +28°C° 0 mm 1 mps 740 mmHg 77%
    21:00 +28°C° 0 mm 1 mps 740 mmHg 78%
    22:00 +28°C° 0 mm 1 mps 741 mmHg 80%
    23:00 +27°C° 0 mm 1 mps 741 mmHg 81%
    Show more